Nur fliegen ist schöner ....

Willkommen beim Flugservice Bautzen GmbH

Wir sind eine nach europäischen Richtlinien zugelassene Flugschule und lizenziertes Luftfahrtunternehmen. Bei uns können sie nicht nur Rundflüge über die Oberlausitz oder Sachsen buchen, sondern in unserer Flugschule selber das Fliegen erlernen. Erfahrene Fluglehrer stehen ihnen dabei zur Seite.

Wir bieten Ihnen außerdem spezielle Flüge zur Vermessung oder Fotoflüge für Luftbildaufnahmen an. In Zusammenarbeit mit dem Fallschirmsportclub Dresden und dem Cottbuser Fallschirmsportclub setzen wir am Flugplatz Bautzen und Neuhausen Fallschirmspringer ab.
Schauen sie sich in Ruhe bei uns um und wenn sie Fragen haben oder weitere Informationen benötigen, scheuen sie sich nicht Kontakt mit uns aufzunehmen.

Rundflüge können sie ganz leicht auch online in unserem Shop buchen.

Terminkalender

Letzter Monat August 2018 Nächster Monat
Mo Di Mi Do Fr Sa So
week 31 1 2 3 4 5
week 32 6 7 8 9 10 11 12
week 33 13 14 15 16 17 18 19
week 34 20 21 22 23 24 25 26
week 35 27 28 29 30 31

Flugwetterinfo

[Quelle: ADDS]
METAR
EDDC 200320Z 26005KT CAVOK 20/12 Q1017 =
TAF
EDDC 192300Z 2000/2024 VRB03KT CAVOK BECMG 2007/2009 28009KT BECMG 2017/2019 31004KT =
SR / SS: 03:56 / 18:13 UTC (EDAB Flugplatz Bautzen 2018-08-20)

Webcam EDAB

Webcam EDAB
Flugservice Bautzen GmbH, Kornmarkt 34, 02625 Bautzen  Telefon: +49 (3591) 211105, Telefax: +49 (3591) 274512, E-Mail:  flugservice(at)fsbautzen.de